West Point, VA

3:01 PM EDT on March 26, 2017 (GMT -0400)
West Point

Weather History for KFYJ - November, 2013

Change the Weather History Date:

Friday, November 8, 2013

  Actual Average (KJGG) Record (KJGG)
Temperature  
Mean Temperature 44 °F -  
Max Temperature 59 °F 62 °F 78 °F (1987)
Min Temperature 30 °F 40 °F 20 °F (1952)
Degree Days  
Heating Degree Days 21    
Moisture  
Dew Point 26 °F    
Average Humidity 55    
Maximum Humidity 88    
Minimum Humidity 22    
Precipitation  
Precipitation 0.00 in - - ()
Sea Level Pressure  
Sea Level Pressure 30.23 in    
Wind  
Wind Speed 3 mph (NW)    
Max Wind Speed 17 mph    
Max Gust Speed 24 mph    
Visibility 10 miles    
Events      
Averages and records for this station are not official NWS values.
T = Trace of Precipitation, MM = Missing Value Source: NWS Daily Summary

Daily Weather History Graph

Daily Weather History Graph

Search for Another Location

Airport or City:

Trip Planner

Search our weather history database for the weather conditions in past years. The results will help you decide how hot, cold, wet, or windy it might be!

Date:

Astronomy

Nov. 08, 2013 Rise Set
Actual Time 6:39 AM EST 5:01 PM EST
Civil Twilight 6:12 AM EST 5:29 PM EST
Nautical Twilight 5:40 AM EST 6:00 PM EST
Astronomical Twilight 5:10 AM EST 6:31 PM EST
Moon 11:33 AM EST (11/8) 10:19 PM EST (11/8)
Length of Visible Light 11h 17m
Length of Day
10h 22m
Waxing Crescent, 33% of the Moon is Illuminated
Nov 8
Waxing Crescent
Nov 10
First Quarter
Nov 17
Full
Nov 25
Last Quarter
Dec 2
New

Hourly Weather History & Observations

Time (EST) Temp. Windchill Dew Point Humidity Pressure Visibility Wind Dir Wind Speed Gust Speed Precip Events Conditions
12:15 AM 46.0 °F - 34.9 °F 65% 30.09 in 10.0 mi Calm Calm - N/A   Clear
12:35 AM 45.5 °F - 34.3 °F 65% 30.10 in 10.0 mi Calm Calm - N/A   Clear
12:55 AM 45.0 °F - 34.0 °F 65% 30.11 in 10.0 mi Calm Calm - N/A   Clear
1:15 AM 45.1 °F - 32.7 °F 62% 30.13 in 10.0 mi Calm Calm - N/A   Clear
1:35 AM 44.8 °F 42.4 °F 31.8 °F 60% 30.13 in 10.0 mi NNW 4.6 mph - N/A   Clear
1:55 AM 45.5 °F 43.2 °F 28.6 °F 52% 30.13 in 10.0 mi North 4.6 mph - N/A   Clear
2:15 AM 46.2 °F 43.3 °F 26.4 °F 46% 30.14 in 10.0 mi NNW 5.8 mph - N/A   Clear
2:35 AM 45.9 °F 42.9 °F 24.8 °F 44% 30.15 in 10.0 mi NNW 5.8 mph - N/A   Scattered Clouds
2:55 AM 45.5 °F - 23.9 °F 43% 30.16 in 10.0 mi Calm Calm - N/A   Scattered Clouds
3:15 AM 45.0 °F - 23.5 °F 43% 30.16 in 10.0 mi Calm Calm - N/A   Clear
3:35 AM 42.8 °F - 26.4 °F 52% 30.16 in 10.0 mi Calm Calm - N/A   Clear
3:55 AM 39.7 °F - 28.9 °F 65% 30.17 in 10.0 mi Calm Calm - N/A   Clear
4:15 AM 36.1 °F - 28.8 °F 75% 30.17 in 10.0 mi Calm Calm - N/A   Clear
4:35 AM 34.5 °F - 28.4 °F 78% 30.18 in 10.0 mi Calm Calm - N/A   Clear
4:55 AM 34.5 °F - 28.2 °F 78% 30.19 in 10.0 mi Calm Calm - N/A   Clear
5:15 AM 35.2 °F - 28.9 °F 78% 30.19 in 10.0 mi Calm Calm - N/A   Clear
5:35 AM 33.1 °F - 28.8 °F 84% 30.20 in 10.0 mi Calm Calm - N/A   Clear
5:55 AM 33.6 °F - 29.8 °F 86% 30.20 in 10.0 mi Calm Calm - N/A   Clear
6:15 AM 32.0 °F - 28.0 °F 85% 30.20 in 10.0 mi Calm Calm - N/A   Clear
6:35 AM 32.7 °F - 29.5 °F 88% 30.21 in 10.0 mi Calm Calm - N/A   Clear
6:55 AM 32.0 °F - 28.2 °F 86% 30.21 in 10.0 mi Calm Calm - N/A   Clear
7:15 AM 34.0 °F - 30.7 °F 88% 30.21 in 10.0 mi Calm Calm - N/A   Clear
7:35 AM 34.9 °F - 31.3 °F 87% 30.22 in 10.0 mi Calm Calm - N/A   Clear
7:55 AM 42.1 °F 37.7 °F 31.8 °F 67% 30.22 in 10.0 mi West 6.9 mph - N/A   Clear
8:15 AM 44.6 °F 39.7 °F 30.6 °F 58% 30.23 in 10.0 mi WSW 9.2 mph - N/A   Clear
8:35 AM 46.8 °F - 30.4 °F 53% 30.23 in 10.0 mi West 6.9 mph - N/A   Clear
8:55 AM 49.1 °F - 30.0 °F 48% 30.23 in 10.0 mi West 5.8 mph - N/A   Clear
9:15 AM 50.9 °F - 28.9 °F 43% 30.23 in 10.0 mi West 9.2 mph - N/A   Clear
9:35 AM 51.8 °F - 27.9 °F 40% 30.23 in 10.0 mi West 8.1 mph - N/A   Clear
9:55 AM 53.6 °F - 26.1 °F 35% 30.23 in 10.0 mi West 13.8 mph 17.3 mph N/A   Clear
10:15 AM 54.5 °F - 26.1 °F 33% 30.23 in 10.0 mi WNW 9.2 mph 17.3 mph N/A   Clear
10:35 AM 54.9 °F - 23.9 °F 30% 30.23 in 10.0 mi West 6.9 mph 17.3 mph N/A   Clear
10:55 AM 55.4 °F - 20.5 °F 26% 30.23 in 10.0 mi WNW 13.8 mph 19.6 mph N/A   Clear
11:15 AM 56.1 °F - 19.9 °F 24% 30.22 in 10.0 mi West 11.5 mph 21.9 mph N/A   Clear
11:35 AM 56.3 °F - 20.7 °F 25% 30.22 in 10.0 mi NW 10.4 mph - N/A   Clear
11:55 AM 56.3 °F - 19.8 °F 24% 30.22 in 10.0 mi WNW 11.5 mph 20.7 mph N/A   Clear
12:15 PM 56.7 °F - 19.6 °F 24% 30.21 in 10.0 mi WNW 17.3 mph 24.2 mph N/A   Clear
12:35 PM 56.7 °F - 19.6 °F 24% 30.21 in 10.0 mi WNW 11.5 mph 20.7 mph N/A   Clear
12:55 PM 57.2 °F - 19.2 °F 23% 30.21 in 10.0 mi NW 9.2 mph 18.4 mph N/A   Clear
1:15 PM 57.6 °F - 20.1 °F 23% 30.21 in 10.0 mi WNW 11.5 mph 16.1 mph N/A   Scattered Clouds
1:35 PM 58.3 °F - 19.8 °F 22% 30.21 in 10.0 mi West 12.7 mph 19.6 mph N/A   Mostly Cloudy
1:55 PM 57.4 °F - 19.2 °F 23% 30.21 in 10.0 mi NNW 9.2 mph 18.4 mph N/A   Mostly Cloudy
2:15 PM 57.4 °F - 19.4 °F 23% 30.21 in 10.0 mi NNW 10.4 mph 16.1 mph N/A   Scattered Clouds
2:35 PM 57.0 °F - 19.6 °F 23% 30.21 in 10.0 mi NW 9.2 mph - N/A   Clear
2:55 PM 56.8 °F - 18.9 °F 23% 30.21 in 10.0 mi WNW 9.2 mph 19.6 mph N/A   Clear
3:15 PM 56.8 °F - 19.9 °F 24% 30.22 in 10.0 mi WNW 8.1 mph - N/A   Clear
3:35 PM 56.5 °F - 19.9 °F 24% 30.22 in 10.0 mi WNW 6.9 mph - N/A   Scattered Clouds
3:55 PM 56.3 °F - 18.5 °F 23% 30.22 in 10.0 mi NNW 11.5 mph 17.3 mph N/A   Scattered Clouds
4:15 PM 55.4 °F - 18.5 °F 24% 30.23 in 10.0 mi WNW 9.2 mph - N/A   Clear
4:35 PM 54.5 °F - 18.7 °F 25% 30.24 in 10.0 mi NNW 3.5 mph - N/A   Clear
4:55 PM 52.9 °F - 20.1 °F 28% 30.24 in 10.0 mi NW 4.6 mph - N/A   Clear
5:15 PM 51.3 °F - 21.0 °F 31% 30.25 in 10.0 mi Calm Calm - N/A   Clear
5:35 PM 44.1 °F - 27.0 °F 51% 30.26 in 10.0 mi Calm Calm - N/A   Clear
5:55 PM 44.8 °F 43.3 °F 28.0 °F 52% 30.27 in 10.0 mi North 3.5 mph - N/A   Clear
6:15 PM 42.6 °F - 29.8 °F 61% 30.28 in 10.0 mi Calm Calm - N/A   Clear
6:35 PM 40.6 °F 38.6 °F 29.7 °F 65% 30.29 in 10.0 mi NE 3.5 mph - N/A   Clear
6:55 PM 41.4 °F - 29.5 °F 63% 30.29 in 10.0 mi Calm Calm - N/A   Clear
7:15 PM 39.4 °F 37.2 °F 29.7 °F 68% 30.29 in 10.0 mi North 3.5 mph - N/A   Clear
7:35 PM 35.4 °F - 27.5 °F 73% 30.31 in 10.0 mi Calm Calm - N/A   Clear
7:55 PM 34.9 °F 30.8 °F 27.5 °F 74% 30.31 in 10.0 mi East 4.6 mph - N/A   Clear
8:15 PM 37.0 °F - 30.0 °F 76% 30.31 in 10.0 mi Calm Calm - N/A   Clear
8:35 PM 35.2 °F 31.2 °F 28.8 °F 77% 30.31 in 10.0 mi NNW 4.6 mph - N/A   Clear
8:55 PM 34.2 °F 31.2 °F 28.8 °F 81% 30.32 in 10.0 mi NNW 3.5 mph - N/A   Clear
9:15 PM 33.3 °F - 27.7 °F 80% 30.33 in 10.0 mi Calm Calm - N/A   Clear
9:35 PM 32.4 °F - 26.2 °F 78% 30.34 in 10.0 mi Calm Calm - N/A   Clear
9:55 PM 31.8 °F - 25.7 °F 78% 30.34 in 10.0 mi Calm Calm - N/A   Clear
10:15 PM 31.8 °F - 25.7 °F 78% 30.34 in 10.0 mi Calm Calm - N/A   Clear
10:35 PM 30.7 °F - 25.7 °F 82% 30.34 in 10.0 mi Calm Calm - N/A   Clear
10:55 PM 32.7 °F - 28.6 °F 85% 30.34 in 10.0 mi Calm Calm - N/A   Clear
11:15 PM 31.8 °F - 27.5 °F 84% 30.35 in 10.0 mi Calm Calm - N/A   Clear
11:35 PM 32.4 °F - 28.8 °F 87% 30.35 in 10.0 mi Calm Calm - N/A   Clear
11:55 PM 31.6 °F - 27.3 °F 84% 30.35 in 10.0 mi Calm Calm - N/A   Clear